Weather Roundup
Issued by NWS Springfield, MO

Home | Current Version | Previous Version | Text Only | Print | Product List | Glossary On
Versions: 1 2 3 4 5 6 7 8 9 10 11 12 13 14 15 16 17 18 19 20 21 22 23 24 25 26 27 28 29 30 31 32 33 34 35 36 37 38 39 40 41 42 43 44 45 46 47 48 49 50
000
NZUS99 KSGF 241507
HRRSGF

HOURLY WEATHER
NATIONAL WEATHER SERVICE SPRINGFIELD MO
1000 AM CDT THU JUL 24 2014

......SGF CWA......

CITY           SKY/WX    TMP DP  RH WIND       PRES   REMARKS
SPRINGFIELD    SUNNY     75  59  57 E9        30.15S
JOPLIN         SUNNY     77  66  68 SE6       30.13R
WEST PLAINS    SUNNY     72  56  57 NE10      30.17S
ROLLA          SUNNY     70  54  56 VRB5      30.17R
OSAGE BEACH    SUNNY     73  55  53 SE5       30.17S
BRANSON        MOSUNNY   77  63  61 SE10      30.16S

......SURROUNDING SGF CWA......

CITY           SKY/WX    TMP DP  RH WIND       PRES   REMARKS
CHANUTE        SUNNY     77  66  68 E10       30.13S
PARSONS        SUNNY     77  67  71 VRB6      30.13S
COFFEYVILLE    SUNNY     77  69  76 E8        30.11S
EMPORIA        SUNNY     75  64  68 SE13      30.14F
GROVE OK       CLOUDY    77  73  88 E7        30.13R
ROGERS AR      PTSUNNY   76  67  73 E8        30.15R
SILOAM SPRINGS CLOUDY    73  64  73 SE9       30.14R
HARRISON AR    PTSUNNY   72  53  51 E12       30.16S
NEAR YELLVILLE MOSUNNY   73  57  56 E5        30.15S

......KANSAS AND MISSOURI......

CITY           SKY/WX    TMP DP  RH WIND       PRES   REMARKS
KANSAS CTY INT MOSUNNY   75  59  57 SE14      30.16S
DOWNTOWN KC    SUNNY     77  59  53 SE10      30.15S
COLUMBIA       SUNNY     72  57  59 E7        30.17S
SEDALIA        SUNNY     75  60  59 SE10      30.18R HAZE
ST JOSEPH      SUNNY     75  60  59 SE13      30.15F
ST LOUIS       SUNNY     71  55  56 VRB5      30.16R
SPIRIT OF STL  SUNNY     71  51  49 NE10      30.14F
KIRKSVILLE     SUNNY     73  60  63 E6        30.19R
WICHITA        SUNNY     78  66  66 E12       30.11S
TOPEKA         SUNNY     78  61  55 SE13      30.14S
OLATHE         SUNNY     73  59  61 SE13G22   30.16R

......TENNESSEE......

CITY           SKY/WX    TMP DP  RH WIND       PRES   REMARKS
MEMPHIS        MOSUNNY   78  65  63 N8        30.07R
NASHVILLE      CLOUDY    76  67  73 NW6       30.03R

......ARKANSAS.......

CITY           SKY/WX    TMP DP  RH WIND       PRES   REMARKS
FAYETTEVILLE   CLOUDY    71  68  90 E7        30.14R
FT SMITH       PTSUNNY   76  69  79 SE13      30.10S
LITTLE ROCK    CLOUDY    74  68  81 NE9       30.10R

......OKLAHOMA.......

CITY           SKY/WX    TMP DP  RH WIND       PRES   REMARKS
TULSA          MOSUNNY   79  71  76 SE6       30.08R
PONCA CITY     SUNNY     79  69  71 E8        30.09R
MCALESTER      SUNNY     77  70  79 VRB5      30.09F
OKLAHOMA CITY  SUNNY     83  67  58 SE9       30.10S

......IOWA............

CITY           SKY/WX    TMP DP  RH WIND       PRES   REMARKS
DES MOINES     CLOUDY    75  62  64 VRB5      30.16R
QUAD CITIES    SUNNY     70  52  52 SE9       30.17S

......ILLINOIS........

CITY           SKY/WX    TMP DP  RH WIND       PRES   REMARKS
QUINCY         SUNNY     71  50  47 NE10      30.17S
CHICAGO        MOSUNNY   68  52  56 NE12      30.16F




USA.gov is the U.S. government's official web portal to all federal, state and local government web resources and services.